Location: White Sands National Monument
(32.8140°N, 106.2665°W)
Time: 01:11:19
(UTC-07:00)

Daily predictions for brighter satellites

Satellite Brightness Start Highest point End
(mag) Time Altitude Azimuth Time Altitude Azimuth Time Altitude Azimuth
USA 215 4.2 03:36:20 10° NE 03:40:47 43° ENE 03:40:47 43° ENE
CZ-3 R/B 4.3 03:26:51 10° SW 03:48:24 31° S 03:55:27 10° ESE
CENTAUR R/B 4.0 03:58:46 28° NNE 03:58:46 28° NNE 04:01:42 10° NNE
Thor Agena Rocket 4.1 04:15:51 10° SSE 04:20:20 52° E 04:20:20 52° E
Lacrosse 5 4.3 04:25:05 10° SSE 04:28:51 21° ESE 04:32:38 10° ENE
Meteor 1-14 Rocket 4.1 04:29:19 10° S 04:35:02 85° E 04:40:39 10° N
Centaur AC-116 4.3 04:38:50 41° SSW 04:38:50 41° SSW 04:41:52 10° SE
Cosmos 2297 4.2 04:36:46 36° N 04:38:53 57° ENE 04:44:25 10° SE
DELTA 2 R/B (1) 3.5 04:42:22 68° N 04:42:37 69° NNE 04:48:09 10° ESE
Cosmos 2074 Rocket 4.2 04:48:25 10° S 04:54:40 73° E 05:00:55 10° N
Cosmos 2278 Rocket 2.7 04:55:57 40° SW 04:55:57 40° SW 05:00:17 10° S
Meteor 1-25 Rocket 4.2 04:52:14 10° S 04:58:04 88° E 05:03:56 10° N
SL-16 R/B 2.6 04:59:24 43° NNW 04:59:24 43° NNW 05:03:48 10° N
ATLAS CENTAUR Rocket 3.3 04:55:54 28° WSW 05:02:29 64° S 05:07:01 10° ESE
Cosmos 292 Rocket 3.7 05:02:32 62° W 05:02:38 62° WNW 05:07:26 10° N
Ariane Rocket 4.2 04:58:50 10° NNE 05:03:38 42° E 05:08:24 10° S
GPS 2-05 Rocket1 3.6 05:05:47 46° NNE 05:05:47 46° NNE 05:08:48 10° ENE
Cosmos 1812 3.1 05:03:42 28° N 05:05:31 62° E 05:09:20 10° SSE
Iridium 2 3.6 05:03:47 10° S 05:07:35 83° E 05:10:22 18° N
Cosmos 2184 Rocket 3.9 05:02:16 10° S 05:08:24 90° W 05:14:37 10° N
Cosmos 1346 Rocket 4.4 05:05:04 10° NNE 05:08:39 34° ENE 05:12:14 10° SE
Timation 1 Rocket 4.2 05:13:59 24° NNW 05:17:45 73° WSW 05:23:42 10° SSE
CZ-4 R/B 4.5 05:15:34 10° NE 05:18:04 16° E 05:20:32 10° SE
Cosmos 1680 Rocket 3.9 05:19:29 36° WNW 05:19:29 36° WNW 05:24:14 10° N
SKYMED 2 3.9 05:15:28 10° SSE 05:19:45 66° ENE 05:24:03 10° N
Cosmos 2151 Rocket 3.6 05:15:58 10° SSW 05:20:22 55° W 05:24:48 10° N
SL-08 ROCKET BODY 4.3 05:17:06 10° SSW 05:23:02 63° W 05:28:55 10° N
USA 215 3.8 05:19:41 10° NNE 05:25:29 35° NW 05:28:10 26° WNW
TIMED 4.4 05:24:27 26° NNW 05:26:52 70° WSW 05:31:12 10° S
Cosmos 1633 3.6 05:25:54 10° SSE 05:29:25 48° E 05:32:57 10° NNE
Abrixas rocket 2.4 05:30:52 19° SW 05:33:07 73° SE 05:36:29 10° NE
CSL-04 DEB 4.3 05:29:13 10° NNE 05:33:18 88° W 05:37:27 10° SSW
Tiangong 2 3.2 05:38:00 15° N 05:38:00 15° N 05:39:54 10° NNE
NOAA 6 4.5 05:37:44 10° N 05:42:25 37° WNW 05:47:06 10° SW
OAO 3 Copernicus 4.3 05:39:32 23° W 05:42:39 70° N 05:47:43 10° E
CENTAUR R/B 4.0 05:46:00 16° NW 05:46:47 16° NW 05:50:45 10° N
Cosmos 1610 Rocket 4.5 05:41:40 10° SSW 05:47:42 60° W 05:53:51 10° N
Cosmos 1536 Rocket 3.8 05:44:09 10° NNW 05:48:24 46° W 05:52:35 10° SSW
Cosmos 1238 Rocket 4.2 05:48:05 10° NNW 05:52:33 35° W 05:57:47 10° SSW
CZ-2C R/B 4.1 05:47:46 10° NNE 05:52:34 39° E 05:57:16 10° SSE
CSL-04 Debris 4.2 05:48:46 10° NNE 05:54:15 88° WNW 05:59:44 10° SSW
Gbstr 26 Del rocket 3.2 05:51:19 18° WNW 05:54:22 50° SW 05:58:11 10° SSE
CSL-04 Rocket 3.6 05:48:53 10° N 05:54:26 74° WNW 05:59:54 10° SSW
Cosmos 1603 4.0 05:50:22 10° SW 05:55:46 44° WNW 06:01:11 10° N
YAOGAN 1 4.5 05:51:58 10° NNE 05:55:55 34° E 05:59:50 10° SSE
Cosmos 44 3.9 05:54:18 10° SSW 05:59:39 71° ESE 06:04:55 10° NNE
Okean 1 Rocket 3.2 05:58:33 10° SSW 06:02:50 51° W 06:07:09 10° N
Cosmos 2369 Rocket 3.5 05:58:01 10° N 06:03:23 40° ENE 06:08:42 10° SE
SMAP 4.2 06:00:32 10° NNE 06:05:03 49° E 06:09:33 10° S
Cosmos 1025 Rocket 4.0 06:01:37 10° N 06:05:54 52° E 06:10:08 10° SSE
COSMO-SKYMED 1 3.4 06:04:00 10° SSW 06:07:50 31° W 06:11:40 10° NW
Lacrosse 5 2.1 06:06:33 10° WSW 06:11:28 48° NW 06:16:25 10° NNE
USA 129 1.4 06:10:31 10° S 06:12:20 62° W 06:14:21 10° NNW
Cosmos 921 Rocket 4.0 06:09:40 10° NW 06:13:35 30° W 06:17:30 10° SSW
Okean 1-7 Rocket 3.5 06:11:14 10° NNW 06:15:37 70° W 06:19:56 10° S
PAYLOAD A 4.1 06:12:03 10° N 06:17:25 76° WNW 06:22:49 10° SSW
SPOT 3 Rocket 3.9 06:16:02 10° NNE 06:21:11 72° ESE 06:26:18 10° S
Cosmos 1943 3.2 06:17:25 10° SSW 06:22:56 60° WNW 06:28:30 10° NNE
Nadezhda 3 Rocket 4.2 06:18:44 10° NNW 06:24:55 55° W 06:31:05 10° SSW
Cosmos 2056 Rocket 3.7 06:20:20 10° NNW 06:25:18 51° WSW 06:30:13 10° S
DELTA 2 R/B (1) 4.5 06:23:49 10° W 06:28:53 37° SW 06:33:56 10° SSE
Cosmos 44 Rocket 4.1 06:24:36 10° WSW 06:29:17 34° NW 06:33:58 10° N
MOS 1 4.4 06:26:34 10° NNE 06:32:14 89° WNW 06:37:54 10° SSW
USA 229 DEB 3.8 06:27:27 10° SSW 06:34:19 85° WNW 06:41:18 10° NNE
USA 229 3.8 06:27:34 10° SSW 06:34:26 85° WNW 06:41:25 10° NNE
